Home   Weather   Fargo   Past weeks

Flag for USA Past Weather in Fargo, North Dakota, USA — Yesterday and Last 2 Weeks

Now
8 °F

Overcast.


Feels Like: -5 °F
Forecast: -11 / 2 °F
Wind: 9 mph from Northwest

Location: Hector International Airport

Current Time: Dec 9, 2016 at 7:53:12 am

Latest Report: Dec 9, 2016 at 6:53 am


Visibility: 10 mi

Pressure: 30.63 "Hg

Humidity: 72%

Dew Point: 1 °F

Location of FargoLocation

Past Weather in Fargo — Graph

°F

Fargo Temperature Yesterday

Maximum temperature yesterday: 18 °F (at 12:53 am)
Minimum temperature yesterday: 6 °F (at 8:53 pm)
Average temperature yesterday: 14 °F

High & Low Weather Summary for the Past Weeks

 TemperatureHumidityPressure
High45 °F (Nov 26, 3:53 pm)96% (Nov 26, 8:53 pm)30.66 "Hg (Nov 26, 8:53 pm)
Low6 °F (Dec 8, 8:53 pm)66% (Dec 2, 4:53 pm)28.79 "Hg (Nov 28, 2:01 pm)
Average30 °F83%29.85 "Hg
* Reported Nov 24 5:53 am — Dec 9 5:53 am, Fargo, Weather by CustomWeather, © 2016

Note: Actual official high and low records may vary slightly from our data, if they occured in-between our weather recording intervals... More about our weather records

Advertising

Fargo Weather History for the Previous 24 Hours

Scroll right to see more
 ConditionsComfort  
Time TempWeatherWind HumidityBarometerVisibility
5:53 am
Fri, Dec 9
8 °FOvercast.8 mph72%30.63 "Hg9 mi
4:53 am8 °FOvercast.7 mph72%30.63 "Hg10 mi
3:53 am8 °FOvercast.8 mph72%30.65 "Hg8 mi
2:53 am8 °FOvercast.9 mph76%30.66 "Hg10 mi
1:53 am8 °FMostly cloudy.N/A76%30.66 "Hg10 mi
12:53 am8 °FMostly cloudy.8 mph76%30.66 "Hg9 mi
11:53 pm
Thu, Dec 8
8 °FOvercast.7 mph72%30.66 "Hg10 mi
10:53 pm8 °FOvercast.7 mph72%30.66 "Hg9 mi
9:53 pm7 °FOvercast.9 mph73%30.66 "Hg10 mi
8:53 pm6 °FLight snow. Overcast.12 mph73%30.66 "Hg9 mi
7:53 pm7 °FOvercast.13 mph73%30.66 "Hg10 mi
6:53 pm10 °FLight snow. Mostly cloudy.16 mph73%30.66 "Hg7 mi
5:53 pm13 °FLight snow. Overcast.14 mph74%30.65 "Hg5 mi
4:53 pm14 °FLight snow. Overcast.13 mph77%30.64 "Hg3 mi
3:53 pm15 °FLight snow. Overcast.16 mph74%30.63 "Hg2 mi
3:00 pm15 °FLight snow. Overcast.16 mph77%30.56 "Hg3 mi
1:53 pm16 °FLight snow. Ice fog.17 mph77%30.60 "Hg1 mi
12:53 pm17 °FLight snow. Ice fog.18 mph76%30.59 "Hg1 mi
11:53 am17 °FLight snow. Overcast.20 mph70%30.59 "Hg4 mi
10:53 am16 °FLight snow. Overcast.20 mph74%30.58 "Hg4 mi
9:53 am16 °FLight snow. Overcast.23 mph74%30.55 "Hg5 mi
8:53 am16 °FLight snow. Overcast.22 mph74%30.53 "Hg4 mi
7:53 am16 °FOvercast.22 mph77%30.50 "Hg10 mi
Weather by CustomWeather, © 2016

See weather overviewHow to use our weather pages